EUTELSAT KONNECT VHTS

Last updated on Tue Oct 08 2024 00:02:42 GMT+0000 (Coordinated Universal Time)

1 53765U 22110A 24281.32906352 .00000028 00000+0 00000+0 0 9997 2 53765 0.0540 92.6710 0002728 81.6102 323.3881 1.00269561 704
UTC large
Height (km)
Speed (km/s)
/
Latitude / Longitude
Inclination (degrees)
Orbital Period (minutes)
Azimuth
Elevation
Range (km)
Doppler Factor

Next 0 passes for location: London (51.5072 / 0.1276)

Sorry there are no passes over London.